CUBESAT XI-V
1 28895U 05043F   10241.65997343 +.00000103 +00000-0 +30807-4 0 06698
2 28895 098.0032 123.6617 0018872 057.8838 302.4172 14.59925608257706
SSETI-EXPRESS DEB
1 28897U 05043H   10242.62239235  .00000153  00000-0  41051-4 0  2332
2 28897 098.0008 124.4837 0018236 054.4825 305.8104 14.60114500250143
MOZ.5/SAFIR/RUBIN 5/SL-8
1 28898U 05043G   10242.46944728  .00000014  00000-0  12441-4 0  6886
2 28898 097.9820 118.9609 0019805 068.6897 291.6394 14.58626731257734
GENESIS 1
1 29252U 06029A   10242.78483774  .00000117  00000-0  21542-4 0  1342
2 29252 064.5127 028.7575 0026261 336.6335 023.3571 15.03701940227009
HINODE (SOLAR B)
1 29479U 06041A   10241.95518375 +.00000061 +00000-0 +21064-4 0 02530
2 29479 098.0936 242.9513 0016660 096.1708 264.1416 14.63011157210134
GENESAT
1 29655U 06058C   10216.61700559  .10637092  69904-5  33715-3 0  2265
2 29655 040.0059 067.3006 0005079 297.8744 064.7087 16.44862838207776
PEHUENSAT 1
1 29712U 07001D   10242.21781517  .00000393  00000-0  56982-4 0  3173
2 29712 097.7750 291.8576 0012933 288.2448 071.7340 14.81231326196447
EGYPTSAT 1
1 31117U 07012A   10242.81912390  .00000115  00000-0  27283-4 0  7761
2 31117 097.9739 315.1486 0004771 297.0850 062.9843 14.70017049180911
CSTB 1
1 31122U 07012F   10242.47887356  .00000555  00000-0  13192-3 0    70
2 31122 097.9383 284.3581 0085389 346.2622 013.6232 14.55434938179054
MAST
1 31126U 07012K   10241.60050191 -.00000090 +00000-0 -97624-5 0 09515
2 31126 097.9296 279.7936 0094972 358.6553 001.4373 14.53613506178723
LIBERTAD 1
1 31128U 07012M   10241.73754967 -.00000046  00000-0  00000+0 0   116
2 31128 097.9333 277.1498 0103038 006.7534 353.5028 14.52191808178549
CP3
1 31129U 07012N   10241.73001052 +.00000043 +00000-0 +20614-4 0 06656
2 31129 097.9358 277.3483 0102823 006.3651 353.8814 14.52295487178533
CAPE 1
1 31130U 07012P   10241.86086311 -.00000268 +00000-0 -51060-4 0 09724
2 31130 097.9338 277.3064 0102927 006.4882 353.7569 14.52212540178355
CP4
1 31132U 07012Q   10241.88112276 -.00000030 +00000-0 +37087-5 0 09852
2 31132 097.9335 283.5273 0085477 348.0952 011.8232 14.55348196178830
AGILE
1 31135U 07013A   10240.85142002  .00001501  00000-0  34259-4 0  4914
2 31135 002.4687 065.0676 0020422 118.4486 241.8427 15.10324070185234
NFIRE
1 31140U 07014A   10241.82558013  .00006476  00000-0  10517-3 0  2332
2 31140 048.2275 358.3666 0008041 211.6677 148.3782 15.53893754190721
GENESIS 2
1 31789U 07028A   10242.56990234  .00000282  00000-0  33689-4 0  8806
2 31789 064.5071 061.1476 0023243 196.1294 163.9084 15.03378699174176
GIOVE-B
1 32781U 08020A   10241.68023445 +.00000026 +00000-0 +10000-3 0 03492
2 32781 055.9236 180.5031 0020660 224.6024 135.2202 01.70949177014628
CARTOSAT 2A
1 32783U 08021A   10242.85943612 -.00000100  00000-0 -65318-5 0  5998
2 32783 097.8920 303.4087 0016832 071.4659 288.8375 14.78693178126304
CANX-6
1 32784U 08021B   10241.21724232 +.00000520 +00000-0 +73329-4 0 07753
2 32784 097.8908 304.6749 0016870 045.8518 314.4072 14.81239215126267
CUTE-1.7+APD II
1 32785U 08021C   10241.30175809 +.00000318 +00000-0 +46933-4 0 07727
2 32785 097.8900 305.1948 0015852 049.1837 311.0732 14.81705654126314
IMS-1
1 32786U 08021D   10242.81192388  .00000248  00000-0  39553-4 0   608
2 32786 097.8942 305.0252 0013859 047.3692 312.8684 14.80082820126410
COMPASS 1
1 32787U 08021E   10241.29436156 +.00000628 +00000-0 +85822-4 0 07636
2 32787 097.8885 305.0255 0016620 049.8448 310.4186 14.81950867126322
AAUSAT CUBESAT 2
1 32788U 08021F   10241.83037754 +.00000613 +00000-0 +83576-4 0 07568
2 32788 097.8869 305.6962 0016482 049.1571 311.1039 14.82098058126413
DELFI C3
1 32789U 08021G   10242.23629751  .00000779  00000-0  10394-3 0  7726
2 32789 097.8946 306.6572 0016537 046.7156 313.5404 14.82279970126473
CANX-2
1 32790U 08021H   10242.73022814 -.00000034  00000-0  24232-5 0  7598
2 32790 097.8880 306.4998 0016526 045.3801 314.8764 14.81674107126509
SEEDS
1 32791U 08021J   10242.67780049  .00000293  00000-0  43780-4 0  7564
2 32791 097.8896 306.3944 0016990 044.0144 316.2466 14.81723234126486
RUBIN 8/PSLV
1 32792U 08021K   10241.88971961 -.00000121 +00000-0 -99997-5 0 07511
2 32792 097.8073 290.9372 0029669 001.0274 359.0981 14.76594117125768
AMOS 3
1 32794U 08022A   10242.73851993 -.00000033  00000-0  10000-3 0  3031
2 32794 000.0247 259.8564 0001338 287.0449 053.7926 01.00273541  8595
YUBILEINY
1 32953U 08025A   10242.74285354  .00000010  00000-0  00000+0 0  9994
2 32953 082.5064 343.3174 0017707 301.6888 058.2466 12.43007448103008
GOSAT (IBUKI)
1 33492U 09002A   10242.79188934 -.00000047  00000-0  26336-6 0  4566
2 33492 098.0860 350.6792 0000717 098.3511 261.7765 14.67540319 85746
PRISM (HITOMI)
1 33493U 09002B   10242.84157139  .00000490  00000-0  70053-4 0  8069
2 33493 098.0934 003.0035 0018597 259.2385 100.6752 14.81079446 86539
SPRITE-SAT (RISING)
1 33494U 09002C   10241.91248426 +.00000079 +00000-0 +21863-4 0 01989
2 33494 098.0679 349.7197 0003309 320.9915 039.1031 14.68814227085696
KAGAYAKI
1 33495U 09002D   10241.83322713  .00000138  00000-0  31048-4 0  1895
2 33495 098.0645 350.5991 0008590 002.1662 357.9576 14.70193749 85739
SOHLA-1 (MAIDO-1)
1 33496U 09002E   10242.44820958 -.00000044  00000-0  79207-6 0  1908
2 33496 098.0638 350.5805 0006218 336.6511 023.4393 14.69511302 85783
STARS (KUKAI)
1 33498U 09002G   10242.43388343  .00000251  00000-0  48528-4 0  1927
2 33498 098.0647 352.3401 0012990 009.9195 350.2261 14.71533877 85902
KKS-1 (KISEKI)
1 33499U 09002H   10241.73874689 -.00000026 +00000-0 +39505-5 0 02011
2 33499 098.0663 351.1573 0010306 011.7750 348.3701 14.70834444085769
EXPRESS AM-44
1 33595U 09007A   10241.83066817 -.00000088 +00000-0 +10000-3 0 04062
2 33595 000.0477 291.2720 0001593 286.8633 047.8257 01.00272641005700
ANUSAT
1 34808U 09019B   10242.49629630  .00004673  00000-0  12813-3 0  3576
2 34808 041.2108 141.6571 0104294 290.9140 069.2374 15.32847432 76251
SES-7 (PROTOSTAR 2)
1 34941U 09027A   10242.61450447 -.00000342  00000-0  10000-3 0  2402
2 34941 000.0189 084.4552 0001819 075.5993 147.5515 01.00269308  4771
PHARMASAT
1 35002U 09028B   10241.80168349 +.00004777 +00000-0 +11034-3 0 03559
2 35002 040.4689 129.4626 0023901 202.9550 157.0176 15.42933400072020
CP6
1 35003U 09028C   10242.90395252  .00009735  00000-0  19244-3 0  3760
2 35003 040.4593 115.2428 0022312 231.7556 128.1237 15.46757922 72281
HAWKSAT 1
1 35004U 09028D   10242.85492839  .00011713  00000-0  22200-3 0  3725
2 35004 040.4618 113.9690 0021228 235.3470 124.5316 15.47861268 72284
AEROCUBE 3
1 35005U 09028E   10242.84337412  .00038321  00000-0  51965-3 0  4275
2 35005 040.4689 107.0523 0021449 260.3718 099.4596 15.56596025 72365
MERIDIAN 2
1 35008U 09029A   10241.58488554  .00000210  00000-0  17572-3 0  3757
2 35008 063.2946 073.9839 7288055 291.4568 009.2085 02.23065638 10377
ANDE CASTOR SPHERE
1 35694U 09038F   10230.44082147  .07179566  12689-4  99310-4 0  6559
2 35694 051.5930 222.0149 0004218 308.0851 053.0105 16.48877011 61107
TATIANA 2
1 35868U 09049D   10242.59161937  .00000177  00000-0  10000-3 0  6246
2 35868 098.7519 295.9743 0004938 129.9765 230.1843 14.22117775 49307
UGATUSAT
1 35869U 09049E   10242.62124074  .00000177  00000-0  10000-3 0  6219
2 35869 098.7506 295.9003 0005160 142.8704 217.2804 14.21987511 49303
SUMBANDILA
1 35870U 09049F   10242.79090880  .00000810  00000-0  39527-4 0   603
2 35870 097.3250 289.9289 0002730 163.8472 308.4518 15.21025410 52794
SWISSCUBE
1 35932U 09051B   10242.72191138  .00005234  00000-0  12986-2 0  5503
2 35932 098.3316 339.8629 0007555 324.2093 035.8334 14.52254655 49557
BEESAT
1 35933U 09051C   10242.45300106  .00007817  00000-0  19109-2 0  5986
2 35933 098.3311 339.7416 0002315 016.8588 343.1541 14.52817957 49531
UWE-2
1 35934U 09051D   10242.30705679  .00003310  00000-0  81574-3 0  4748
2 35934 098.3264 339.4907 0005057 340.2359 019.8606 14.52823854 49528
ITUPSAT 1
1 35935U 09051E   10242.51478472  .00001934  00000-0  48744-3 0  3268
2 35935 098.3385 339.8622 0007223 323.3880 036.6775 14.52228778 49527
XIWANG-1 (HOPE-1)
1 36122U 09072B   10242.73611293 -.00000045  00000-0  00000+0 0  6270
2 36122 100.4626 302.3880 0007458 164.2016 195.9342 13.16281671 34021
NEGAI
1 36575U 10020C   10169.93468623  .00761412 -54972-5  10000-3 0   301
2 36575 029.9693 027.9688 0018320 250.4600 189.6837 16.33780746  4648
